Vorticity
6 5 5 4 4 5 3 5 5 7 7 8 7 5 3 2 3 2 5 9 13 10 6 6 7 7 8 9 10 9 7 7 7 6 7 6 6 5
9 10 11 10 9 9 10 11 14 14 10 6 5 7 11 11 6 2 -1 -1 4 11 8 8 9 10 8 6 7 8 9 9 8 9 9 10 9 6
11 10 10 12 14 16 14 13 13 14 12 4 2 10 14 10 7 8 8 7 6 7 7 10 5 4 6 6 6 6 7 8 9 9 8 5 6 7
15 16 20 25 19 17 16 14 18 20 21 16 11 15 12 7 7 12 11 10 13 12 9 8 7 5 6 8 7 5 4 4 5 8 10 9 6 5
15 16 8 9 10 12 8 12 6 5 1 6 6 18 15 13 13 14 10 9 7 6 7 12 8 5 2 3 5 9 9 9 4 2 4 5 8 7
12 6 12 7 9 4 10 11 14 12 12 15 12 14 12 12 14 18 21 18 21 19 17 14 13 12 10 8 7 9 9 8 10 11 7 3 -1 -1
17 17 15 16 11 8 9 9 14 12 11 5 8 10 13 9 11 17 2 10 10 14 15 17 19 23 27 27 26 18 14 11 13 11 11 9 9 8
2 4 9 10 8 5 4 12 10 3 7 9 4 13 11 4 6 7 5 3 2 10 7 6 6 4 4 6 9 11 16 22 23 17 11 7 8 11
5 8 7 6 9 14 11 2 1 6 5 7 5 4 6 4 2 1 6 9 9 4 10 7 9 5 7 3 2 4 5 5 4 6 11 14 19 23
11 9 12 11 9 9 8 11 11 11 11 8 12 13 11 16 14 12 9 8 7 6 2 0 -0 -1 1 3 8 9 8 9 9 9 6 1 4 7
17 15 14 15 18 14 15 15 17 15 15 13 12 12 16 16 10 7 13 10 10 8 8 4 5 3 10 7 5 3 6 4 7 6 8 9 6 3
10 9 8 5 5 4 6 8 10 10 14 17 16 13 12 14 15 14 18 18 17 13 13 14 17 18 15 17 16 17 18 17 12 10 15 13 8 8
16 15 14 15 16 16 17 18 18 17 16 16 19 20 20 19 18 19 18 18 19 21 20 24 19 17 18 15 11 18 17 17 20 23 24 26 26 25
12 12 12 12 12 12 12 12 12 11 11 11 10 10 10 10 10 9 10 10 10 11 11 11 13 14 16 18 19 16 14 15 15 15 15 15 16 17
8 9 10 10 11 11 11 11 12 12 13 13 12 12 12 12 12 11 12 11 11 11 10 10 10 10 10 10 10 10 11 11 12 12 12 11 10 11
12 11 11 12 12 11 10 11 11 11 11 11 11 10 10 11 11 11 11 12 11 11 12 12 12 11 10 11 10 10 10 10 8 9 8 7 9 9
9 9 8 9 9 10 10 10 10 10 10 9 10 9 9 9 10 11 12 12 13 13 15 15 14 12 13 12 13 14 12 13 15 12 14 12 12 12
8 8 8 9 9 10 11 10 7 7 7 8 10 11 13 14 14 15 17 17 17 19 18 19 21 23 22 21 20 16 23 21 20 21 19 21 20 22
8 9 9 10 8 5 5 7 11 15 14 16 18 22 22 21 22 21 22 22 22 21 21 19 19 21 20 22 21 31 23 24 24 26 27 29 32 29
6 8 10 12 16 20 22 22 23 23 25 27 25 22 21 20 20 21 20 20 20 18 17 17 16 15 17 17 18 18 21 17 17 17 17 18 19 22
24 27 27 26 27 26 26 27 27 26 24 21 19 19 19 18 18 17 14 14 14 14 15 14 12 15 16 17 19 15 10 18 17 16 13 14 14 15
28 28 28 27 27 25 23 21 22 18 17 17 15 14 13 13 12 12 12 12 13 13 13 11 12 13 13 16 16 15 10 11 16 17 17 14 11 12
29 29 27 24 20 18 16 15 14 15 13 12 12 12 11 10 11 11 12 12 12 12 12 12 13 16 17 17 17 13 12 8 11 12 12 12 14 14
Height
5652 5655 5658 5661 5664 5668 5670 5673 5675 5678 5681 5685 5688 5691 5693 5696 5699 5701 5703 5706 5708 5712 5715 5718 5720 5723 5726 5730 5733 5735 5737 5741 5746 5750 5754 5756 5759 5762
5634 5637 5640 5643 5646 5649 5651 5654 5656 5660 5663 5666 5669 5671 5673 5676 5680 5683 5686 5689 5692 5694 5697 5700 5703 5706 5709 5712 5715 5719 5722 5725 5729 5733 5737 5740 5743 5747
5616 5619 5621 5624 5627 5630 5633 5635 5638 5641 5644 5647 5650 5653 5655 5657 5660 5662 5666 5669 5672 5676 5679 5682 5685 5688 5691 5694 5698 5701 5704 5708 5712 5716 5720 5724 5727 5730
5597 5600 5603 5606 5609 5612 5614 5617 5620 5622 5624 5627 5630 5633 5636 5638 5641 5642 5645 5648 5652 5655 5659 5662 5666 5668 5672 5676 5678 5682 5686 5689 5693 5696 5701 5706 5709 5713
5581 5583 5586 5588 5591 5593 5596 5599 5602 5605 5607 5607 5609 5612 5615 5618 5621 5622 5625 5628 5630 5633 5636 5639 5643 5647 5651 5655 5658 5661 5665 5669 5673 5677 5681 5685 5689 5694
5564 5567 5569 5571 5574 5576 5578 5581 5584 5586 5587 5588 5589 5591 5593 5597 5600 5603 5605 5607 5610 5611 5613 5617 5619 5623 5628 5632 5636 5639 5643 5647 5650 5655 5659 5663 5668 5672
5548 5550 5552 5554 5556 5558 5560 5563 5566 5568 5570 5571 5571 5573 5573 5576 5580 5584 5586 5587 5589 5591 5593 5595 5600 5602 5604 5607 5611 5616 5619 5622 5626 5631 5635 5639 5644 5648
5531 5533 5535 5536 5538 5541 5542 5545 5548 5549 5550 5553 5554 5556 5556 5560 5560 5563 5566 5568 5572 5570 5574 5577 5579 5582 5584 5587 5590 5593 5596 5599 5602 5606 5609 5614 5619 5624
5515 5517 5518 5519 5521 5522 5525 5526 5528 5531 5532 5533 5536 5537 5540 5540 5542 5543 5544 5548 5550 5550 5553 5560 5558 5562 5563 5565 5569 5573 5576 5578 5581 5584 5587 5591 5594 5598
5499 5500 5501 5502 5502 5504 5506 5508 5509 5511 5511 5512 5516 5516 5518 5519 5519 5520 5522 5525 5528 5530 5531 5537 5535 5539 5541 5544 5546 5549 5552 5554 5556 5561 5565 5568 5571 5575
5482 5483 5484 5484 5483 5486 5487 5487 5488 5489 5488 5490 5493 5495 5496 5496 5496 5497 5499 5501 5505 5507 5507 5511 5512 5516 5517 5520 5521 5522 5525 5527 5531 5534 5538 5542 5545 5548
5467 5466 5467 5467 5466 5467 5469 5469 5472 5468 5467 5469 5471 5473 5473 5473 5473 5473 5475 5478 5479 5483 5481 5484 5485 5488 5493 5495 5494 5494 5496 5499 5502 5505 5508 5511 5515 5519
5450 5449 5449 5449 5450 5450 5450 5451 5452 5448 5448 5451 5451 5451 5451 5452 5452 5452 5453 5454 5456 5459 5458 5458 5461 5462 5464 5470 5472 5470 5470 5472 5474 5477 5480 5483 5485 5488
5435 5434 5433 5433 5433 5433 5433 5432 5432 5431 5432 5432 5433 5433 5431 5432 5432 5432 5431 5433 5435 5437 5437 5436 5440 5438 5441 5445 5448 5449 5450 5451 5451 5453 5453 5456 5459 5461
5421 5419 5417 5416 5416 5416 5415 5414 5413 5413 5414 5414 5414 5413 5412 5413 5413 5411 5411 5413 5415 5415 5415 5415 5416 5416 5419 5423 5425 5426 5428 5428 5427 5427 5429 5431 5434 5436
5404 5403 5401 5400 5399 5398 5397 5396 5395 5395 5395 5395 5394 5393 5393 5393 5393 5391 5393 5391 5395 5394 5393 5393 5393 5394 5397 5399 5400 5402 5401 5403 5404 5403 5404 5408 5410 5412
5387 5385 5384 5383 5381 5380 5378 5377 5376 5375 5375 5374 5374 5373 5373 5372 5372 5371 5372 5371 5373 5372 5370 5367 5367 5369 5372 5374 5375 5374 5376 5379 5377 5376 5376 5382 5385 5386
5368 5367 5365 5363 5361 5360 5358 5357 5356 5354 5353 5353 5353 5352 5352 5351 5350 5350 5349 5349 5350 5349 5350 5348 5346 5345 5347 5351 5350 5352 5353 5352 5351 5351 5351 5353 5359 5358
5348 5345 5343 5341 5339 5337 5335 5334 5333 5331 5331 5331 5330 5330 5330 5330 5330 5331 5330 5329 5330 5331 5331 5330 5328 5326 5328 5333 5332 5327 5331 5330 5329 5330 5328 5329 5333 5335
5324 5321 5319 5316 5313 5312 5311 5311 5310 5309 5310 5311 5312 5312 5312 5312 5313 5314 5314 5314 5315 5315 5316 5315 5313 5311 5313 5316 5319 5320 5308 5311 5312 5314 5313 5312 5315 5317
5298 5295 5292 5291 5290 5290 5290 5291 5292 5293 5294 5295 5296 5297 5297 5299 5301 5301 5302 5302 5302 5303 5304 5303 5299 5298 5300 5301 5305 5306 5300 5296 5297 5298 5299 5300 5301 5301
5274 5273 5271 5271 5272 5273 5275 5276 5278 5280 5281 5283 5284 5285 5286 5288 5290 5290 5291 5291 5290 5290 5291 5290 5288 5287 5287 5288 5290 5290 5289 5286 5284 5285 5286 5285 5286 5288
5256 5256 5256 5258 5259 5261 5263 5265 5268 5269 5271 5272 5274 5275 5277 5278 5279 5280 5280 5280 5280 5279 5279 5278 5277 5276 5277 5276 5276 5277 5276 5274 5274 5273 5274 5269 5269 5270